{"data":{"norad_id":62385,"epoch":"2026-05-25T00:06:58.347072Z","epoch_age_seconds":73808,"freshness":"FRESH","line1":"1 62385U 24247J   26145.00484198  .00038914  00000+0  69696-3 0  9998","line2":"2 62385  45.0013  22.8843 0007260 164.1871 195.9249 15.49339361 79851","mean_motion":15.49339361,"eccentricity":0.000726,"inclination_deg":45.0013,"raan_deg":22.8843,"arg_perigee_deg":164.1871,"mean_anomaly_deg":195.9249,"bstar":0.00069696,"rev_number":7985,"period_min":92.942839783698,"perigee_km":413.72301428749,"apogee_km":423.59195988274,"semimajor_km":6796.7944870851,"source":"CELESTRAK","updated_at":"2026-05-25T13:38:02.945784Z"}}